Hostetter, PA

4:00 PM EST on February 13, 2016 (GMT -0500)
Arnold Palmer Regional

Weather History for KLBE - May, 2014

Change the Weather History Date:

Friday, May 16, 2014

  Actual Average Record
Temperature  
Mean Temperature 50 °F -  
Max Temperature 55 °F 70 °F 87 °F (1998)
Min Temperature 44 °F 48 °F 35 °F (2000)
Degree Days  
Heating Degree Days 16    
Moisture  
Dew Point 47 °F    
Average Humidity 90    
Maximum Humidity 100    
Minimum Humidity 54    
Precipitation  
Precipitation 0.50 in - - ()
Sea Level Pressure  
Sea Level Pressure 29.96 in    
Wind  
Wind Speed 6 mph (WSW)    
Max Wind Speed 14 mph    
Max Gust Speed -    
Visibility 9 miles    
Events Rain    
Averages and records for this station are not official NWS values.
T = Trace of Precipitation, MM = Missing Value Source: NWS Daily Summary

Daily Weather History Graph

Daily Weather History Graph

Search for Another Location

Airport or City:

Trip Planner

Search our weather history database for the weather conditions in past years. The results will help you decide how hot, cold, wet, or windy it might be!

Date:

Astronomy

May. 16, 2014 Rise Set
Actual Time 6:00 AM EDT 8:27 PM EDT
Civil Twilight 5:29 AM EDT 8:58 PM EDT
Nautical Twilight 4:51 AM EDT 9:37 PM EDT
Astronomical Twilight 4:08 AM EDT 10:20 PM EDT
Moon 10:33 PM EDT (5/16) 7:40 AM EDT (5/16)
Length of Visible Light 15h 28m
Length of Day
14h 27m
Waning Gibbous, 95% of the Moon is Illuminated
May 16
Waning Gibbous
May 21
Last Quarter
May 28
New
Jun 5
First Quarter
Jun 13
Full

Hourly Weather History & Observations

Time (EDT) Temp. Windchill Dew Point Humidity Pressure Visibility Wind Dir Wind Speed Gust Speed Precip Events Conditions
12:15 AM 51.8 °F - 51.8 °F 100% 30.00 in 3.0 mi SW 5.8 mph - 0.04 in Rain Rain
12:35 AM 51.8 °F - 51.8 °F 100% 29.99 in 4.0 mi SW 5.8 mph - 0.10 in Rain Rain
12:55 AM 51.8 °F - 51.8 °F 100% 29.97 in 4.0 mi SW 3.5 mph - 0.16 in Rain Rain
1:15 AM 51.8 °F - 51.8 °F 100% 29.96 in 3.0 mi SW 4.6 mph - 0.05 in Rain Rain
1:35 AM 51.8 °F - 51.8 °F 100% 29.97 in 4.0 mi West 3.5 mph - 0.10 in Rain Light Rain
1:55 AM 50.0 °F - 50.0 °F 100% 29.96 in 8.0 mi West 6.9 mph - 0.11 in Rain Light Rain
2:15 AM 50.0 °F - 50.0 °F 100% 29.95 in 8.0 mi West 5.8 mph - 0.00 in Rain Rain
2:35 AM 50.0 °F - 50.0 °F 100% 29.94 in 4.0 mi West 3.5 mph - 0.06 in Rain Rain
2:55 AM 50.0 °F - 50.0 °F 100% 29.94 in 5.0 mi SW 4.6 mph - 0.10 in Rain Light Rain
3:15 AM 50.0 °F - 50.0 °F 100% 29.94 in 5.0 mi WSW 6.9 mph - 0.02 in Rain Rain
3:35 AM 50.0 °F - 50.0 °F 100% 29.94 in 3.0 mi WSW 8.1 mph - 0.09 in Rain Light Rain
3:55 AM 48.2 °F - 48.2 °F 100% 29.94 in 4.0 mi SW 4.6 mph - 0.13 in   Light Drizzle
4:15 AM 48.2 °F - 48.2 °F 100% 29.94 in 10.0 mi SW 3.5 mph - 0.00 in   Overcast
4:35 AM 48.2 °F - 48.2 °F 100% 29.94 in 10.0 mi SSW 4.6 mph - 0.00 in   Overcast
4:55 AM 48.2 °F - 48.2 °F 100% 29.94 in 10.0 mi SW 4.6 mph - 0.00 in   Overcast
5:15 AM 48.2 °F - 48.2 °F 100% 29.93 in 10.0 mi SW 4.6 mph - 0.00 in   Overcast
5:35 AM 50.0 °F - 50.0 °F 100% 29.93 in 9.0 mi SW 4.6 mph - 0.00 in   Overcast
5:55 AM 50.0 °F - 50.0 °F 100% 29.93 in 10.0 mi West 5.8 mph - 0.00 in   Overcast
6:05 AM 50.0 °F - 50.0 °F 100% 29.93 in 8.0 mi West 6.9 mph - N/A   Overcast
6:50 AM 48.2 °F - 48.2 °F 100% 29.95 in 8.0 mi West 6.9 mph - N/A   Mostly Cloudy
7:50 AM 48.2 °F - 48.2 °F 100% 29.96 in 10.0 mi WSW 5.8 mph - N/A   Scattered Clouds
8:50 AM 48.2 °F - 46.4 °F 93% 29.96 in 8.0 mi West 9.2 mph - N/A   Overcast
9:50 AM 48.2 °F - 44.6 °F 87% 29.97 in 8.0 mi West 13.8 mph - N/A   Overcast
10:50 AM 48.2 °F - 44.6 °F 87% 29.98 in 8.0 mi WSW 9.2 mph - N/A   Overcast
11:50 AM 48.2 °F - 42.8 °F 82% 29.98 in 10.0 mi WSW 13.8 mph - N/A   Overcast
12:50 PM 51.8 °F - 42.8 °F 71% 29.97 in 15.0 mi WSW 9.2 mph - N/A   Overcast
1:50 PM 51.8 °F - 42.8 °F 71% 29.96 in 15.0 mi WSW 9.2 mph - N/A   Overcast
2:50 PM 53.6 °F - 41.0 °F 62% 29.96 in 15.0 mi West 9.2 mph - N/A   Mostly Cloudy
4:50 PM 55.4 °F - 42.8 °F 63% 29.94 in 15.0 mi WSW 11.5 mph - N/A   Mostly Cloudy
5:50 PM 55.4 °F - 39.2 °F 54% 29.95 in 15.0 mi West 9.2 mph - N/A   Scattered Clouds
6:50 PM 55.4 °F - 39.2 °F 54% 29.96 in 15.0 mi West 11.5 mph - N/A   Scattered Clouds
7:50 PM 53.6 °F - 39.2 °F 58% 29.97 in 15.0 mi Variable 5.8 mph - N/A   Partly Cloudy
8:50 PM 51.8 °F - 41.0 °F 67% 29.99 in 10.0 mi Calm Calm - N/A   Clear
9:50 PM 46.4 °F - 42.8 °F 87% 30.00 in 10.0 mi Calm Calm - N/A   Clear
10:15 PM 46.4 °F - 42.8 °F 87% 30.00 in 10.0 mi Calm Calm - 0.00 in   Clear
10:35 PM 44.6 °F - 44.6 °F 100% 30.00 in 10.0 mi Calm Calm - 0.00 in   Mostly Cloudy
10:55 PM 46.4 °F - 44.6 °F 93% 29.99 in 10.0 mi Calm Calm - 0.00 in   Overcast
11:15 PM 46.4 °F - 44.6 °F 93% 30.00 in 10.0 mi Calm Calm - 0.00 in   Overcast
11:35 PM 46.4 °F 41.9 °F 46.4 °F 100% 30.01 in 10.0 mi SSW 9.2 mph - 0.00 in   Overcast
11:55 PM 46.4 °F 44.3 °F 44.6 °F 93% 30.01 in 10.0 mi WSW 4.6 mph - 0.00 in   Overcast